Franklin, NC

10:48 AM EDT on October 20, 2017 (GMT -0400)
Franklin

Weather History for K1A5 - December, 2012

Change the Weather History Date:

Monday, December 3, 2012

  Actual Average (KTOC) Record (KTOC)
Temperature  
Mean Temperature 50 °F -  
Max Temperature 69 °F 56 °F 69 °F (2014)
Min Temperature 32 °F 36 °F 35 °F (2015)
Degree Days  
Heating Degree Days 14    
Moisture  
Dew Point 37 °F    
Average Humidity 81    
Maximum Humidity 100    
Minimum Humidity 35    
Precipitation  
Precipitation 0.00 in - - ()
Sea Level Pressure  
Sea Level Pressure 30.31 in    
Wind  
Wind Speed 0 mph (South)    
Max Wind Speed 6 mph    
Max Gust Speed -    
Visibility 8 miles    
Events Fog    
Averages and records for this station are not official NWS values.
T = Trace of Precipitation, MM = Missing Value Source: NWS Daily Summary

Daily Weather History Graph

Daily Weather History Graph

Search for Another Location

Airport or City:

Trip Planner

Search our weather history database for the weather conditions in past years. The results will help you decide how hot, cold, wet, or windy it might be!

Date:

Astronomy

Dec. 03, 2012 Rise Set
Actual Time 7:26 AM EST 5:21 PM EST
Civil Twilight 6:58 AM EST 5:49 PM EST
Nautical Twilight 6:26 AM EST 6:20 PM EST
Astronomical Twilight 5:55 AM EST 6:51 PM EST
Moon 10:01 PM EST (12/3) 10:53 AM EST (12/3)
Length of Visible Light 10h 51m
Length of Day
9h 55m
Waning Gibbous, 78% of the Moon is Illuminated
Dec 3
Waning Gibbous
Dec 6
Last Quarter
Dec 13
New
Dec 20
First Quarter
Dec 28
Full

Hourly Weather History & Observations

Time (EST) Temp. Dew Point Humidity Pressure Visibility Wind Dir Wind Speed Gust Speed Precip Events Conditions
12:15 AM 33.8 °F 32.0 °F 93% 30.34 in 10.0 mi Calm Calm - N/A   Clear
12:35 AM 33.8 °F 33.8 °F 100% 30.34 in 10.0 mi Calm Calm - N/A   Clear
12:55 AM 32.0 °F 32.0 °F 100% 30.33 in 10.0 mi Calm Calm - N/A   Clear
1:15 AM 32.0 °F 32.0 °F 100% 30.33 in 10.0 mi Calm Calm - N/A   Clear
1:35 AM 32.0 °F 32.0 °F 100% 30.33 in 10.0 mi Calm Calm - N/A   Clear
1:55 AM 32.0 °F 32.0 °F 100% 30.34 in 10.0 mi Calm Calm - N/A   Clear
2:15 AM 32.0 °F 32.0 °F 100% 30.34 in 10.0 mi Calm Calm - N/A   Clear
2:35 AM 32.0 °F 32.0 °F 100% 30.34 in 7.0 mi Calm Calm - N/A   Clear
2:55 AM 32.0 °F 32.0 °F 100% 30.34 in 7.0 mi Calm Calm - N/A   Clear
3:15 AM 32.0 °F 32.0 °F 100% 30.34 in 7.0 mi Calm Calm - N/A   Clear
3:35 AM 32.0 °F 32.0 °F 100% 30.34 in 10.0 mi Calm Calm - N/A   Clear
3:55 AM 32.0 °F 30.2 °F 93% 30.34 in 10.0 mi Calm Calm - N/A   Clear
4:15 AM 32.0 °F 30.2 °F 93% 30.34 in 10.0 mi Calm Calm - N/A   Mostly Cloudy
4:35 AM 32.0 °F 30.2 °F 93% 30.34 in 10.0 mi Calm Calm - N/A   Overcast
4:55 AM 32.0 °F 32.0 °F 100% 30.34 in 10.0 mi Calm Calm - N/A   Overcast
5:15 AM 32.0 °F 32.0 °F 100% 30.34 in 0.8 mi Calm Calm - N/A   Overcast
5:35 AM 32.0 °F 32.0 °F 100% 30.34 in 0.2 mi Calm Calm - N/A Fog Fog
5:55 AM 32.0 °F 32.0 °F 100% 30.35 in 0.2 mi Calm Calm - N/A Fog Fog
6:15 AM 32.0 °F 32.0 °F 100% 30.35 in 0.2 mi Calm Calm - N/A Fog Fog
6:35 AM 32.0 °F 32.0 °F 100% 30.36 in 0.2 mi Calm Calm - N/A Fog Fog
6:55 AM 32.0 °F 32.0 °F 100% 30.36 in 0.2 mi Calm Calm - N/A Fog Fog
7:15 AM 32.0 °F 32.0 °F 100% 30.36 in 0.2 mi Calm Calm - N/A Fog Fog
7:35 AM 32.0 °F 32.0 °F 100% 30.36 in 0.2 mi Calm Calm - N/A Fog Fog
7:55 AM 33.8 °F 32.0 °F 93% 30.37 in 0.2 mi Calm Calm - N/A Fog Fog
8:15 AM 33.8 °F 32.0 °F 93% 30.37 in 0.2 mi Calm Calm - N/A Fog Fog
8:35 AM 33.8 °F 33.8 °F 100% 30.37 in 0.2 mi Calm Calm - N/A Fog Fog
8:55 AM 35.6 °F 33.8 °F 93% 30.37 in 0.2 mi Calm Calm - N/A Fog Fog
9:15 AM 35.6 °F 35.6 °F 100% 30.37 in 0.5 mi Calm Calm - N/A Fog Fog
9:35 AM 37.4 °F 35.6 °F 93% 30.37 in 0.2 mi Calm Calm - N/A Fog Fog
10:15 AM 42.8 °F 41.0 °F 93% 30.37 in 10.0 mi Calm Calm - N/A   Scattered Clouds
10:35 AM 44.6 °F 42.8 °F 93% 30.37 in 10.0 mi Calm Calm - N/A   Clear
10:55 AM 48.2 °F 46.4 °F 93% 30.36 in 10.0 mi Calm Calm - N/A   Clear
11:15 AM 51.8 °F 42.8 °F 71% 30.35 in 10.0 mi Calm Calm - N/A   Clear
11:35 AM 55.4 °F 42.8 °F 63% 30.34 in 10.0 mi Calm Calm - N/A   Clear
11:55 AM 57.2 °F 42.8 °F 59% 30.32 in 10.0 mi Calm Calm - N/A   Clear
12:15 PM 59.0 °F 42.8 °F 55% 30.31 in 10.0 mi Calm Calm - N/A   Clear
12:35 PM 62.6 °F 42.8 °F 48% 30.30 in 10.0 mi Calm Calm - N/A   Clear
12:55 PM 62.6 °F 42.8 °F 48% 30.28 in 10.0 mi Calm Calm - N/A   Clear
1:15 PM 64.4 °F 42.8 °F 45% 30.27 in 10.0 mi Calm Calm - N/A   Clear
1:35 PM 66.2 °F 42.8 °F 43% 30.26 in 10.0 mi ENE 3.5 mph - N/A   Clear
2:15 PM 68.0 °F 42.8 °F 40% 30.25 in 10.0 mi Calm Calm - N/A   Clear
2:35 PM 68.0 °F 42.8 °F 40% 30.25 in 10.0 mi Calm Calm - N/A   Clear
2:55 PM 69.8 °F 42.8 °F 38% 30.24 in 10.0 mi SE 4.6 mph - N/A   Clear
3:15 PM 69.8 °F 41.0 °F 35% 30.24 in 10.0 mi SE 3.5 mph - N/A   Clear
3:35 PM 68.0 °F 41.0 °F 37% 30.24 in 10.0 mi WSW 5.8 mph - N/A   Clear
3:55 PM 68.0 °F 41.0 °F 37% 30.24 in 10.0 mi SW 4.6 mph - N/A   Clear
4:15 PM 68.0 °F 41.0 °F 37% 30.24 in 10.0 mi SW 5.8 mph - N/A   Clear
4:35 PM 64.4 °F 42.8 °F 45% 30.25 in 10.0 mi SW 4.6 mph - N/A   Clear
4:55 PM 64.4 °F 42.8 °F 45% 30.25 in 10.0 mi SE 4.6 mph - N/A   Clear
5:15 PM 62.6 °F 42.8 °F 48% 30.25 in 10.0 mi Calm Calm - N/A   Clear
5:35 PM 59.0 °F 42.8 °F 55% 30.26 in 10.0 mi South 3.5 mph - N/A   Clear
5:55 PM 55.4 °F 42.8 °F 63% 30.27 in 10.0 mi Calm Calm - N/A   Clear
6:15 PM 53.6 °F 41.0 °F 62% 30.27 in 10.0 mi Calm Calm - N/A   Clear
6:35 PM 50.0 °F 41.0 °F 71% 30.28 in 10.0 mi Calm Calm - N/A   Clear
6:55 PM 46.4 °F 41.0 °F 81% 30.28 in 10.0 mi Calm Calm - N/A   Clear
7:15 PM 42.8 °F 39.2 °F 87% 30.28 in 10.0 mi Calm Calm - N/A   Clear
7:35 PM 41.0 °F 37.4 °F 87% 30.29 in 10.0 mi Calm Calm - N/A   Clear
7:55 PM 41.0 °F 35.6 °F 81% 30.29 in 10.0 mi Calm Calm - N/A   Clear
8:15 PM 39.2 °F 35.6 °F 87% 30.29 in 10.0 mi Calm Calm - N/A   Clear
8:35 PM 37.4 °F 35.6 °F 93% 30.30 in 10.0 mi Calm Calm - N/A   Clear
8:55 PM 37.4 °F 35.6 °F 93% 30.30 in 10.0 mi Calm Calm - N/A   Scattered Clouds
9:15 PM 37.4 °F 35.6 °F 93% 30.30 in 10.0 mi Calm Calm - N/A   Mostly Cloudy
9:35 PM 37.4 °F 35.6 °F 93% 30.30 in 10.0 mi Calm Calm - N/A   Mostly Cloudy
9:55 PM 37.4 °F 35.6 °F 93% 30.30 in 10.0 mi Calm Calm - N/A   Overcast
10:15 PM 37.4 °F 37.4 °F 100% 30.30 in 10.0 mi Calm Calm - N/A   Overcast
10:35 PM 39.2 °F 37.4 °F 93% 30.30 in 10.0 mi Calm Calm - N/A   Overcast
10:55 PM 41.0 °F 39.2 °F 93% 30.30 in 10.0 mi Calm Calm - N/A   Overcast
11:15 PM 41.0 °F 37.4 °F 87% 30.30 in 10.0 mi Calm Calm - N/A   Overcast
11:35 PM 42.8 °F 39.2 °F 87% 30.30 in 10.0 mi Calm Calm - N/A   Overcast
11:55 PM 42.8 °F 41.0 °F 93% 30.30 in 10.0 mi Calm Calm - N/A   Overcast